Tracking 19562 objects as of 23-Mar-2019
HD Live streaming from Space Station
objects crossing your sky now

COSMOS 2316 (GLONASS)

Track COSMOS 2316 (GLONASS) now!
COSMOS 2316 (GLONASS) is classified as:


NORAD ID: 23620
Int'l Code: 1995-037A
Perigee: 19,101.6 km
Apogee: 19,172.6 km
Inclination: 66.0 °
Period: 675.7 minutes
Semi major axis: 25508 km
RCS: 3.4616 m2 (large)
Launch date: July 24, 1995
Source: Commonwealth of Independent States (former USSR) (CIS)
Launch site: TYURATAM MISSILE AND SPACE COMPLEX (TTMTR)
aabbcc
Your satellite tracking list
Your tracking list is empty




NASA's NSSDC Master Catalog

Two Line Element Set (TLE):
1 23620U 95037A   19081.20256917 +.00000010 +00000-0 +00000-0 0  9999
2 23620 066.0101 289.1632 0013915 159.7664 029.4115 02.13101492184094
Source of the keplerian elements: AFSPC